Powrót do katalogu

COSMOS 2251 DEB

AktywnyLEO
NORAD 35717·DEBRIS·🇷🇺 Russia

Wystrzelony Jun 16, 1993 z Plesetsk Cosmodrome

Loading…

Następne Przeloty (najbliższe 24 godziny)

TLE

Starzejące sięSource: Space-Track

Epoka: Sep 11, 2026, 04:46 UTC

1 35717U 93036AQN 26254.19866154  .00002038  00000-0  63098-3 0  9995
2 35717  74.1585  78.2170 0075138 220.2374 139.3207 14.40231587780201

Śledź COSMOS 2251 DEB w czasie rzeczywistym z AllMySat

Download on the App Store